OPS 1593 (TRANSIT 11)

Satellite information

Favourite Embed

Satellite Type and Status

PAYLOADIN ORBIT

Key statistics

Satellite OPS 1593 (TRANSIT 11) at a glance.

Uptime

21870

Days in orbit

Revolutions

≈ 13.7

Per day

Orbit

SSO

Sun Synchronous Orbit

Inclination

90.1

Latest

Satellite identification and parameters

Extended collection of information and parameters for OPS 1593 (TRANSIT 11).

Object identification

Identified? True

Debris? False

Object name: OPS 1593 (TRANSIT 11)

International designator: 1966-005A

Object number (NORAD): 1952

Object ID (CCSDS): 1952

Country: UNITED STATES OF AMERICA (US)

Current information (Y/N): Y

RCS size: LARGE

Orbital parameters

Period: 105.258 minutes

Inclination: 90.1467 deg

SMA: 7384.669 km

Apoapsis: 1166.136 km

Periapsis: 846.932 km

RAAN: 348.9438 deg

Eccentricy: 0.02161265

Argument of periapsis: 212.5723 deg

Mean anomaly: 146.1953 deg

Mean motion: 13.68063331 rev/day

Mean motion (dot): 0.00000257 rev/day2

B* drag term: 0.00024824787 1/REarth

Two-line elements (TLE)

Creation date: Dec. 14, 2025, 3:07 a.m.

Reference frame: TEME

Reference center: EARTH

Epoch: Dec. 13, 2025, 12:07 p.m. UTC

TLE line 0: 0 OPS 1593 (TRANSIT 11)

TLE line 1: 1 01952U 66005A 25347.50498096 .00000257 00000-0 24825-3 0 9994

TLE line 2: 2 01952 90.1467 348.9438 0216127 212.5723 146.1953 13.68063331980769

Live tracking on map

Real-time ground track for satellite OPS 1593 (TRANSIT 11).

In-orbit conjunctions

There are no conjunctions computed for OPS 1593 (TRANSIT 11), at the moment. Check back to stay up to date, as we update our databases every day.

Go to all conjunctions

Associated space launch

The Transit-O series of satellites that closely followed the design of Transit 5C-1 were also called “Oscars” (Oscar is the phonetic alphabet for “O”, i. e., operational). They were also called NNS (Navy Navigation Satellite) or shortened NavSat.

OPS 1593 (TRANSIT 11) was lifted into orbit during the mission ‘Scout A | Transit-O 7’, on board a Scout A space rocket.

The launch took place on Jan. 28, 1966, 5:06 p.m. from Space Launch Complex 5.

For more information about the launch, click the button.

Launch to space Scout A | Transit-O 7
Scout A | Transit-O 7

Agency: N/A

Status: Launch Successful

Launch date: Jan. 28, 1966, 5:06 p.m. UTC

Rocket: Scout A

Launch pad: Space Launch Complex 5

Location: Vandenberg SFB, CA, USA

...

Latest news about this satellite

There are no fresh news available about this satellite. Check back as we update our databases every day.


Newsletter sign-up

Weekly statistics, charts and insights to help you stay on top of the space industry.